2000 CL33 

Epoch 2000 Feb. 6.0 TT = JDT 2451580.5                  Nakano

M  23.23555              (2000.0)            P               Q

n   0.25219676     Peri.  127.50563     +0.40245791     -0.90527063

a   2.4810930      Node   298.23656     +0.78360859     +0.41751443

e   0.5533826      Incl.    8.88429     +0.47327076     +0.07852891

P   3.91           H   18.1           G   0.15           U   *

Residuals in seconds of arc 

000202 704  0.2-  0.1-    000203 046  0.8+  0.7-    000205 422  1.0-  0.7-  

000202 704  0.6-  0.1-    000203 046  0.6+  0.0     000205 422  0.3-  1.1+  

000202 704  1.3+  0.2+    000203 046  1.0+  0.2+    000205 422  0.3-  0.4+  

000202 704  0.6+  0.8-    000203 557  0.7-  0.2+    000206 704  0.2-  1.2-  

000203 704  0.2-  0.4+    000203 557  0.8-  0.5+    000206 704  0.0   0.2-  

000203 704  0.1-  0.6-    000203 557  0.7-  0.1-    000206 704  0.5-  0.1-  

000203 704  0.2-  0.4+    000204 747  0.0   0.7+    000206 704  1.5+  0.7-  

000203 704  0.6-  0.2+    000204 747  0.3+  0.3+    000206 704  0.4+  0.6-  

000203 422  0.4-  0.1-    000204 747  0.5-  0.4+    000206 704  0.6+  0.9+  

000203 422  0.0   0.2-    000204 651  0.7-  0.2-    000206 704  0.9+  0.4+  

000203 422  0.2+  0.2+    000204 651  1.0-  0.7-    000206 704  0.4+  0.6+  

000203 422  0.1+  0.8+    000204 651  0.2-  0.6-    000210 360  0.3-  0.1+  

000203 046  0.5+  0.4-    000204 422  0.4+  0.8+    000210 360  0.1+  0.2-  

000203 046  1.2+  0.3+    000204 422  1.1-  0.5-    000210 360  0.1-  0.0   

 

NAKANO

         **** Don't distribute anyone except personal use only ****

                (C) Copyright 2000 OAA/ComputingSection

write mail from CFAD0::NAKANO on 2000-02-16 04:06:38(JST).





–ß‚è‚Ü‚·B